Location: Henry
(41.9986°N, 104.0474°W)
Time: 21:31:21
(UTC+00:00)

Envisat - Visible Passes

Search period start: 04 October 2024 00:00
Search period end: 14 October 2024 00:00
Orbit: 762 x 764 km, 98.3° (Epoch: 04 October)

Date Brightness Start Highest point End Pass type
(mag) Time Alt. Az. Time Alt. Az. Time Alt. Az.
04 Oct 5.8 08:53:56 10° NE 08:54:56 13° ENE 08:54:56 13° ENE visible
04 Oct 3.7 10:31:32 10° N 10:35:04 41° NNW 10:35:04 41° NNW visible
05 Oct 4.3 09:54:02 10° NNE 09:57:02 35° NNE 09:57:02 35° NNE visible
05 Oct 4.6 11:34:21 10° NNW 11:37:10 17° WNW 11:37:10 17° WNW visible
06 Oct 5.4 09:17:04 10° NE 09:18:59 19° NE 09:18:59 19° NE visible
06 Oct 4.0 10:55:51 10° N 10:59:07 30° NW 10:59:07 30° NW visible
07 Oct 4.0 10:18:01 10° N 10:21:04 37° N 10:21:04 37° N visible
07 Oct 5.0 12:00:51 10° NW 12:01:09 10° WNW 12:01:13 10° WNW visible
08 Oct 4.9 09:40:40 10° NNE 09:43:02 26° NE 09:43:02 26° NE visible
08 Oct 4.4 11:20:24 10° NNW 11:23:10 20° NW 11:23:10 20° NW visible
09 Oct 5.8 09:04:00 10° NE 09:04:58 14° NE 09:04:58 14° NE visible
09 Oct 4.1 10:42:11 10° N 10:45:07 31° NNW 10:45:07 31° NNW visible
10 Oct 4.5 10:04:31 10° NNE 10:07:03 30° NNE 10:07:03 30° NNE visible
10 Oct 4.8 11:45:30 10° NNW 11:47:11 13° NW 11:47:11 13° NW visible
11 Oct 5.4 09:27:22 10° NNE 09:29:00 19° NE 09:29:00 19° NE visible
11 Oct 4.4 11:06:35 10° N 11:09:08 23° NW 11:09:08 23° NW visible
12 Oct 4.4 10:28:35 10° N 10:31:04 29° N 10:31:04 29° N visible
13 Oct 5.0 09:51:05 10° NNE 09:53:01 23° NNE 09:53:01 23° NNE visible
13 Oct 4.7 11:31:18 10° NNW 11:33:09 16° NW 11:33:09 16° NW visible
